FW2966 Weather Reports


time (UTC)temp
C
wind
direction
speed
KPH
gust
KPH
rain 1hr
cm
rain 24hr
cm
rain mn
cm
humidity
%
barometer
mb
20260506123052 16 143 4.8 14.5 0.00 0.00 0.00 82 1009.2
20260506121553 16 0 3.2 8.0 0.00 0.00 0.00 83 1009.6
20260506120115 15 236 3.2 12.9 0.00 0.00 0.00 86 1009.7
20260506114545 15 207 3.2 9.7 0.00 0.00 0.00 86 1009.7
20260506113049 15 190 3.2 11.3 0.00 0.00 0.00 87 1009.6
20260506111546 14 169 3.2 9.7 0.00 0.00 0.00 88 1009.4
20260506110051 13 227 1.6 8.0 0.00 0.00 0.00 88 1009.6
20260506104548 13 207 1.6 8.0 0.00 0.00 0.00 89 1009.4
20260506103052 13 178 4.8 11.3 0.00 0.00 0.00 89 1009.4
20260506101549 13 167 3.2 14.5 0.00 0.00 0.00 89 1009.4
20260506100049 13 0 1.6 8.0 0.00 0.00 0.00 89 1009.4
20260506094549 13 207 3.2 12.9 0.00 0.00 0.00 89 1009.3
20260506093052 13 143 0.0 9.7 0.00 0.00 0.00 88 1009.2
20260506091547 13 0 0.0 11.3 0.00 0.00 0.00 88 1009.3
20260506090046 13 202 3.2 19.3 0.00 0.00 0.00 88 1009.3
20260506084546 13 0 1.6 8.0 0.00 0.00 0.00 87 1009.5
20260506083053 13 290 1.6 6.4 0.00 0.00 0.00 87 1009.5
20260506081551 13 204 3.2 12.9 0.00 0.00 0.00 87 1009.5
20260506073043 13 203 1.6 11.3 0.00 0.00 0.00 87 1009.6
20260506071553 13 0 1.6 9.7 0.00 0.00 0.00 86 1009.9
20260506070109 13 144 3.2 14.5 0.00 0.00 0.00 86 1009.8
20260506061546 13 142 1.6 12.9 0.00 0.00 0.00 85 1009.9
20260506044555 14 113 0.0 8.0 0.00 0.00 0.00 82 1010.3
20260506043049 15 191 3.2 12.9 0.00 0.00 0.00 82 1010.3
20260506041551 15 182 3.2 9.7 0.00 0.00 0.00 80 1010.2
20260506040051 15 157 3.2 9.7 0.00 0.00 0.00 79 1010.2
20260506034552 16 166 1.6 6.4 0.00 0.00 0.00 77 1010.2
20260506033048 16 160 1.6 6.4 0.00 0.00 0.00 76 1010.2
20260506031554 16 134 3.2 11.3 0.00 0.00 0.00 76 1009.9
20260506030105 16 185 3.2 11.3 0.00 0.00 0.00 75 1009.9
20260506024544 16 202 3.2 12.9 0.00 0.00 0.00 75 1010.1
20260506023049 16 192 3.2 12.9 0.00 0.00 0.00 74 1010.1
20260506021547 17 173 1.6 11.3 0.00 0.00 0.00 73 1010.1
20260506020048 17 249 4.8 16.1 0.00 0.00 0.00 71 1010.0
20260506014543 17 224 1.6 16.1 0.00 0.00 0.00 72 1009.9
20260506013047 17 200 4.8 19.3 0.00 0.00 0.00 71 1009.8
20260506011553 17 161 4.8 14.5 0.00 0.00 0.00 71 1009.7
20260506010043 17 153 1.6 14.5 0.00 0.00 0.00 72 1009.5
20260506004618 17 163 3.2 11.3 0.00 0.00 0.00 73 1009.2
20260506003049 17 225 3.2 12.9 0.00 0.00 0.00 73 1009.1
20260506001538 17 124 6.4 20.9 0.00 0.00 0.00 72 1008.9
20260506000048 17 187 6.4 14.5 0.00 0.00 0.00 72 1008.9
20260505234607 17 201 4.8 24.1 0.00 0.00 0.00 72 1008.7
20260505233041 18 175 6.4 12.9 0.00 0.00 0.00 71 1008.5
20260505231549 18 207 3.2 12.9 0.00 0.00 0.00 71 1008.2
20260505230051 18 240 4.8 22.5 0.00 0.00 0.00 71 1008.0
20260505224544 18 159 6.4 20.9 0.00 0.00 0.00 70 1007.7
20260505223058 19 196 4.8 16.1 0.00 0.00 0.00 68 1007.6
20260505221557 19 146 4.8 12.9 0.00 0.00 0.00 68 1007.6
20260505220119 20 184 6.4 16.1 0.00 0.00 0.00 67 1007.5
20260505214604 20 190 6.4 17.7 0.00 0.00 0.00 67 1007.5
20260505213051 19 107 4.8 17.7 0.00 0.00 0.00 67 1007.3
20260505211559 19 190 9.7 25.7 0.00 0.00 0.00 67 1007.2
20260505210051 19 192 9.7 25.7 0.00 0.00 0.00 67 1007.2
20260505204545 20 188 9.7 24.1 0.00 0.00 0.00 66 1007.4
20260505203045 20 188 9.7 29.0 0.00 0.00 0.00 64 1007.5
20260505201602 21 199 9.7 22.5 0.00 0.00 0.00 62 1007.5
20260505200104 22 232 8.0 22.5 0.00 0.00 0.00 61 1007.6
20260505194555 22 158 8.0 17.7 0.00 0.00 0.00 62 1007.9
20260505193046 21 230 8.0 17.7 0.00 0.00 0.00 64 1008.3
20260505191553 21 205 6.4 17.7 0.00 0.00 0.00 63 1008.4
20260505190051 21 175 6.4 19.3 0.00 0.00 0.00 62 1008.8
20260505184550 21 200 9.7 20.9 0.00 0.00 0.00 63 1008.9
20260505183052 21 130 6.4 14.5 0.00 0.00 0.00 66 1009.0
20260505181549 21 141 8.0 16.1 0.00 0.00 0.00 65 1009.0
20260505180050 21 171 6.4 17.7 0.00 0.00 0.00 66 1009.1
20260505174549 22 169 4.8 16.1 0.00 0.00 0.00 65 1009.2
20260505173047 22 197 4.8 12.9 0.00 0.00 0.00 62 1009.2
20260505171543 22 169 8.0 19.3 0.00 0.00 0.00 61 1009.3
20260505170043 22 203 6.4 19.3 0.00 0.00 0.00 60 1009.5
20260505164542 22 133 6.4 16.1 0.00 0.00 0.00 61 1009.7
20260505163044 22 178 4.8 16.1 0.00 0.00 0.00 62 1009.9
20260505161544 21 158 4.8 12.9 0.00 0.00 0.00 64 1010.0
20260505153049 21 211 4.8 11.3 0.00 0.00 0.00 64 1010.2
20260505151549 21 162 4.8 12.9 0.00 0.00 0.00 65 1010.3
20260505124553 16 169 3.2 8.0 0.00 0.00 0.00 79 1010.5